カタログに戻る

COSMOS 1655

運用中ナビゲーションPO
NORAD 15751·PAYLOAD·🇷🇺 Russia

打ち上げ May 30, 1985 から Plesetsk Cosmodrome

Loading…

次のパス (今後24時間)

TLE

最新Source: Space-Track

元期: Sep 14, 2026, 13:30 UTC

1 15751U 85041A   26257.56284266  .00000056  00000-0  45036-4 0  9991
2 15751  82.9537   0.8290 0026105 206.1429 164.5577 13.71942607 66953

AllMySatでCOSMOS 1655をリアルタイム追跡

Download on the App Store